Location: Great Chart
(51.1333°N, 0.8333°E)
Time: 11:25:09
(UTC+00:00)

Iridium 2 - Pass Details

Date: 19 September 2020
Orbit: 504 x 514 km, 85.5° (Epoch: 30 October)

Event Time Altitude Azimuth Distance (km) Brightness Sun altitude
Exits shadow 04:14:40 23° 235° (SW) 1,115 4.8 -13.7°
Maximum altitude 04:16:21 34° 282° (WNW) 849 4.3 -13.4°
Drops below altitude 10° 04:19:50 10° 349° (N) 1,734 6.5 -12.9°
Sets 04:22:06 0° 359° (N) 2,627 7.5 -12.6°
